Location: Lafig�re
(44.4503°N, 4.0357°E)
Time: 20:33:01
(UTC+00:00)

Cosmos 1092 Rocket - Pass Details

Date: 26 January 2021
Orbit: 954 x 995 km, 83.0° (Epoch: 07 March)

Event Time Altitude Azimuth Distance (km) Brightness Sun altitude
Rises 19:22:56 0° 226° (SW) 3,646 7.6 -28.1°
Reaches altitude 10° 19:25:58 10° 240° (WSW) 2,697 7.0 -28.7°
Maximum altitude 19:30:48 24° 292° (WNW) 1,898 6.1 -29.5°
Drops below altitude 10° 19:35:38 10° 344° (NNW) 2,696 6.5 -30.4°
Sets 19:38:42 0° 358° (N) 3,644 7.1 -30.9°
